Weather reports worldwide

Advertisment
Aguilas, Spain (8432): temperature & dewpoint: 05.12.2019 10:00:00 - 11.12.2019 10:00:00 (CET)Aguilas, Spain (8432): wind speed & gusts: 05.12.2019 10:00:00 - 11.12.2019 10:00:00 (CET)Aguilas, Spain (8432): wind direction: 05.12.2019 10:00:00 - 11.12.2019 10:00:00 (CET)Aguilas, Spain (8432): reduced air pressure: 05.12.2019 10:00:00 - 11.12.2019 10:00:00 (CET)Aguilas, Spain (8432): visibility: 05.12.2019 10:00:00 - 11.12.2019 10:00:00 (CET)Aguilas, Spain (8432): sunshine duration: 05.12.2019 10:00:00 - 11.12.2019 10:00:00 (CET)Aguilas, Spain (8432): precipitation: 05.12.2019 10:00:00 - 11.12.2019 10:00:00 (CET)
Date & Time tt [°C] td [°C] ff [km/h] ff [kn] fx [km/h] fx [kn] dd ppp [hPa] vv [km] sd [min] rr [mm]
11.12.2019 10:00:00 - - - - - - - - - - -
11.12.2019 09:00:00 9,2 2,5 2 1 11 6 NNE 1022,0 20 0 0,0
11.12.2019 08:00:00 8,0 1,5 2 1 9 5 NW 1022,2 20 0 0,0
11.12.2019 07:00:00 8,3 1,5 3 2 9 5 NNE 1022,2 20 0 -
11.12.2019 06:00:00 8,9 1,3 3 2 10 5 NNE 1021,9 20 0 0,0
11.12.2019 05:00:00 8,9 2,7 4 2 11 6 NNE 1022,1 20 0 0,0
11.12.2019 04:00:00 9,8 3,9 9 5 13 7 N 1022,4 20 0 0,0
11.12.2019 03:00:00 9,8 1,9 6 4 10 5 ENE 1022,6 20 0 0,0
11.12.2019 02:00:00 10,0 1,9 7 4 10 5 N 1022,9 20 0 0,0
11.12.2019 01:00:00 10,5 2,1 4 2 8 4 NNE 1023,3 20 0 -
11.12.2019 00:00:00 9,6 2,9 3 1 10 5 NNE 1023,7 20 0 0,0
10.12.2019 23:00:00 9,4 3,2 1 1 5 3 N 1023,7 20 0 0,0
10.12.2019 22:00:00 10,1 3,6 4 2 6 4 NW 1024,0 20 0 0,0
10.12.2019 21:00:00 11,6 3,4 3 2 10 5 N 1024,3 20 0 0,0
10.12.2019 20:00:00 12,4 5,8 5 3 13 7 NNW 1024,6 20 0 0,0
10.12.2019 19:00:00 14,2 7,0 8 4 11 6 NE 1024,2 20 0 -
10.12.2019 18:00:00 15,9 7,8 2 1 6 3 ENE 1023,9 18 8 0,0
10.12.2019 17:00:00 19,2 7,6 2 1 8 5 SSW 1023,9 20 60 0,0
10.12.2019 16:00:00 19,3 7,1 3 2 16 9 SW 1024,0 20 60 0,0
10.12.2019 15:00:00 20,4 3,2 7 4 15 8 SSW 1024,1 20 60 0,0
10.12.2019 14:00:00 20,6 0,4 5 3 14 8 SSE 1024,6 20 60 0,0
10.12.2019 13:00:00 20,1 -0,5 6 4 15 8 S 1025,5 20 60 -
10.12.2019 12:00:00 18,9 -1,7 4 2 14 7 E 1025,9 20 60 0,0
10.12.2019 11:00:00 18,9 3,0 3 2 12 7 SSW 1026,5 20 60 0,0
10.12.2019 10:00:00 16,8 5,1 9 5 16 9 SE 1026,3 19 60 0,0
10.12.2019 09:00:00 13,8 -2,7 4 2 20 11 E 1025,9 20 1 0,0
10.12.2019 08:00:00 10,9 -2,2 7 4 14 8 NW 1025,9 20 0 0,0
10.12.2019 07:00:00 10,6 -1,2 8 5 13 7 NW 1026,1 20 0 -
10.12.2019 06:00:00 10,9 -0,5 4 2 11 6 NE 1026,2 20 0 0,0
10.12.2019 05:00:00 11,7 -0,3 3 2 16 9 W 1026,3 20 0 0,0
10.12.2019 04:00:00 14,1 -0,5 9 5 21 11 NNW 1026,3 20 0 0,0
10.12.2019 03:00:00 15,0 -0,7 7 4 19 11 WNW 1026,7 20 0 0,0
10.12.2019 02:00:00 15,9 -2,2 6 3 22 12 N 1026,8 20 0 0,0
10.12.2019 01:00:00 13,3 1,1 7 4 13 7 N 1027,1 20 0 -
10.12.2019 00:00:00 13,0 6,4 6 3 11 6 ENE 1027,1 20 0 0,0
09.12.2019 23:00:00 14,0 9,0 2 1 8 5 WNW 1027,0 20 0 0,0
09.12.2019 22:00:00 13,5 4,8 2 1 10 5 SW 1026,7 20 0 0,0
09.12.2019 21:00:00 13,6 5,8 4 2 10 6 WNW 1026,3 20 0 0,0
09.12.2019 20:00:00 14,0 7,3 3 1 9 5 WSW 1025,8 20 0 0,0
09.12.2019 19:00:00 15,8 8,3 1 1 14 8 WSW 1025,4 20 0 -
09.12.2019 18:00:00 16,0 9,9 5 3 9 5 W 1025,1 20 0 0,0
09.12.2019 17:00:00 17,7 10,0 4 2 16 9 WNW 1025,3 20 18 0,0
09.12.2019 16:00:00 19,9 9,8 6 3 14 7 WSW 1025,2 20 60 0,0
09.12.2019 15:00:00 20,2 11,4 4 2 14 7 WSW 1025,4 20 60 0,0
09.12.2019 14:00:00 19,6 7,7 8 5 20 11 SSE 1025,8 20 60 0,0
09.12.2019 13:00:00 20,6 8,0 12 6 18 10 SE 1026,0 20 60 -
09.12.2019 12:00:00 21,9 3,6 5 3 27 15 NNE 1026,7 20 60 0,0
09.12.2019 11:00:00 20,5 1,9 4 2 22 12 N 1026,8 20 60 0,0
09.12.2019 10:00:00 16,7 7,1 4 2 16 9 NW 1026,4 12 41 0,0
09.12.2019 09:00:00 14,8 6,5 6 3 17 9 SW 1025,9 20 1 0,0
09.12.2019 08:00:00 15,4 6,4 12 7 26 14 NW 1025,5 20 0 0,0
09.12.2019 07:00:00 13,2 6,2 4 2 24 13 WNW 1024,9 20 0 -
09.12.2019 06:00:00 13,7 6,2 9 5 14 7 NW 1023,9 20 0 0,0
09.12.2019 05:00:00 15,5 5,5 3 2 28 15 NNW 1023,7 20 0 0,0
09.12.2019 04:00:00 15,1 5,8 11 6 18 10 NW 1023,8 20 0 0,0
09.12.2019 03:00:00 15,6 5,5 4 2 14 8 WNW 1024,0 20 0 0,0
09.12.2019 02:00:00 16,3 3,8 9 5 21 11 W 1023,8 20 0 0,0
09.12.2019 01:00:00 15,7 4,5 5 3 23 12 WNW 1024,3 20 0 -
09.12.2019 00:00:00 15,8 3,6 15 8 25 13 WNW 1024,1 20 0 0,0
08.12.2019 23:00:00 14,1 3,6 4 2 16 8 WSW 1023,7 20 0 0,0
08.12.2019 22:00:00 12,9 7,0 4 2 13 7 W 1023,9 20 0 0,0
08.12.2019 21:00:00 12,7 7,1 2 1 7 4 N 1023,9 20 0 0,0
08.12.2019 20:00:00 12,7 6,7 1 1 8 4 NW 1023,6 20 0 0,0
08.12.2019 19:00:00 14,5 8,3 6 3 10 5 NNE 1023,2 20 0 -
08.12.2019 18:00:00 16,3 11,2 4 2 7 4 ESE 1022,9 12 5 0,0
08.12.2019 17:00:00 18,4 11,0 2 1 9 5 E 1022,7 20 60 0,0
08.12.2019 16:00:00 18,9 11,2 6 3 14 7 SW 1022,8 19 60 0,0
08.12.2019 15:00:00 19,2 9,4 6 3 14 8 SW 1023,0 20 60 0,0
08.12.2019 14:00:00 18,5 8,8 8 4 15 8 SSW 1023,5 20 60 0,0
08.12.2019 13:00:00 18,6 8,3 8 4 17 9 SSW 1024,3 20 60 -
08.12.2019 12:00:00 18,6 7,4 8 5 13 7 SSW 1025,0 20 60 0,0
08.12.2019 11:00:00 17,8 7,8 1 1 5 3 W 1025,3 20 60 0,0
08.12.2019 10:00:00 14,9 8,7 0 0 5 3 N 1025,2 16 60 0,0
08.12.2019 09:00:00 10,7 6,4 3 2 9 5 SSE 1024,9 20 2 0,0
08.12.2019 08:00:00 10,2 5,9 3 2 11 6 NNE 1024,6 20 0 0,0
08.12.2019 07:00:00 9,8 6,5 5 3 10 5 N 1024,1 20 0 -
08.12.2019 06:00:00 9,2 5,9 2 1 10 5 NNE 1023,9 20 0 0,0
08.12.2019 05:00:00 9,7 7,0 5 3 9 5 N 1023,9 20 0 0,0
08.12.2019 04:00:00 9,3 6,2 2 1 7 4 N 1024,1 20 0 0,0
08.12.2019 03:00:00 9,8 6,4 0 0 10 5 N 1024,6 20 0 0,0
08.12.2019 02:00:00 10,1 6,8 8 4 12 7 N 1024,6 20 0 0,0
08.12.2019 01:00:00 10,7 7,7 5 3 12 6 NNW 1024,9 19 0 -
08.12.2019 00:00:00 10,9 8,1 6 3 10 6 NW 1025,3 15 0 0,0
07.12.2019 23:00:00 11,4 8,3 3 2 11 6 NNW 1025,4 19 0 0,0
07.12.2019 22:00:00 11,9 8,8 4 2 8 4 N 1025,2 20 0 0,0
07.12.2019 21:00:00 11,8 8,3 1 1 8 5 NE 1024,9 20 0 0,0
07.12.2019 20:00:00 12,3 8,5 2 1 9 5 NNW 1024,5 18 0 0,0
07.12.2019 19:00:00 13,5 9,6 5 3 9 5 N 1023,8 20 0 -
07.12.2019 18:00:00 15,1 9,4 2 1 10 5 WNW 1023,2 20 5 0,0
07.12.2019 17:00:00 17,7 8,0 3 2 7 4 SSE 1022,6 20 59 0,0
07.12.2019 16:00:00 18,3 7,7 2 1 11 6 SSW 1022,3 20 31 0,0
07.12.2019 15:00:00 17,2 8,4 6 4 11 6 ESE 1022,0 20 0 0,0
07.12.2019 14:00:00 17,1 8,3 5 3 9 5 SE 1022,2 20 0 0,0
07.12.2019 13:00:00 17,2 8,4 6 3 15 8 ESE 1022,9 20 0 -
07.12.2019 12:00:00 17,4 7,1 3 2 7 4 N 1023,8 20 22 0,0
07.12.2019 11:00:00 16,9 7,8 2 1 6 3 WSW 1024,0 20 41 0,0
07.12.2019 10:00:00 16,9 7,8 1 1 9 5 SW 1023,7 20 60 0,0
07.12.2019 09:00:00 11,6 7,6 5 3 10 5 NW 1023,1 20 4 0,0
07.12.2019 08:00:00 10,3 6,4 1 1 11 6 E 1022,7 20 0 0,0
07.12.2019 07:00:00 11,4 7,3 7 4 12 7 NNE 1022,3 20 0 -
07.12.2019 06:00:00 10,3 7,1 6 3 10 6 N 1022,0 20 0 0,0
07.12.2019 05:00:00 10,2 6,8 2 1 7 4 NE 1021,9 20 0 0,0
07.12.2019 04:00:00 11,5 7,6 4 2 10 5 N 1022,2 20 0 0,0
07.12.2019 03:00:00 11,0 7,3 1 1 11 6 NE 1022,6 20 0 0,0
07.12.2019 02:00:00 11,1 7,8 6 3 9 5 N 1022,7 20 0 0,0
07.12.2019 01:00:00 11,3 7,8 2 1 9 5 NNW 1022,9 20 0 -
07.12.2019 00:00:00 12,2 7,8 5 3 10 5 N 1023,2 20 0 0,0
06.12.2019 23:00:00 12,1 7,8 4 2 9 5 N 1023,1 20 0 0,0
06.12.2019 22:00:00 12,9 8,4 4 2 8 4 NE 1023,2 20 0 0,0
06.12.2019 21:00:00 14,0 8,4 2 1 22 12 E 1023,0 20 0 0,0
06.12.2019 20:00:00 15,0 9,2 8 4 17 9 ENE 1022,9 20 0 0,0
06.12.2019 19:00:00 15,3 9,7 11 6 20 11 E 1022,3 20 0 -
06.12.2019 18:00:00 16,0 9,2 9 5 24 13 E 1021,5 20 0 0,0
06.12.2019 17:00:00 16,6 8,3 14 8 27 15 E 1021,0 20 45 0,0
06.12.2019 16:00:00 17,6 8,7 14 8 33 18 E 1020,5 20 60 0,0
06.12.2019 15:00:00 17,6 8,1 18 10 32 18 ENE 1020,4 20 60 0,0
06.12.2019 14:00:00 17,8 8,1 15 8 28 15 ENE 1021,3 20 19 0,0
06.12.2019 13:00:00 16,9 8,4 13 7 29 16 ENE 1022,0 20 0 -
06.12.2019 12:00:00 16,8 8,3 16 8 36 19 ENE 1022,5 20 2 0,0
06.12.2019 11:00:00 15,9 8,4 16 9 31 17 ENE 1022,8 20 0 0,0
06.12.2019 10:00:00 15,3 8,3 15 8 28 15 ENE 1022,7 20 0 0,0
06.12.2019 09:00:00 14,9 8,4 13 7 26 14 ENE 1022,0 20 0 0,0
06.12.2019 08:00:00 14,5 8,7 11 6 22 12 ENE 1021,4 20 0 0,0
06.12.2019 07:00:00 14,1 8,7 10 5 21 11 ENE 1020,8 20 0 -
06.12.2019 06:00:00 14,1 8,7 10 6 21 12 ENE 1020,4 20 0 0,0
06.12.2019 05:00:00 13,6 8,4 5 3 19 10 NE 1020,1 20 0 0,0
06.12.2019 04:00:00 13,9 8,8 9 5 19 10 ENE 1020,2 20 0 0,0
06.12.2019 03:00:00 14,2 8,8 9 5 21 12 NE 1020,2 20 0 0,0
06.12.2019 02:00:00 14,2 8,7 8 5 21 11 ENE 1020,0 20 0 0,0
06.12.2019 01:00:00 14,4 9,2 9 5 18 10 ENE 1020,3 20 0 -
06.12.2019 00:00:00 14,0 8,8 6 4 17 9 E 1020,5 20 0 0,0
05.12.2019 23:00:00 13,8 9,0 5 3 14 8 ENE 1020,4 20 0 0,0
05.12.2019 22:00:00 14,3 9,3 6 3 16 9 ENE 1020,1 20 0 0,0
05.12.2019 21:00:00 14,5 9,3 9 5 17 9 ENE 1019,8 20 0 0,0
05.12.2019 20:00:00 14,2 8,1 7 4 21 11 ENE 1019,3 20 0 0,0
05.12.2019 19:00:00 15,1 7,6 13 7 25 13 E 1018,3 20 0 -
05.12.2019 18:00:00 15,5 8,3 13 7 23 13 E 1017,5 20 0 0,0
05.12.2019 17:00:00 16,1 9,3 12 6 24 13 E 1016,9 20 11 0,0
05.12.2019 16:00:00 17,5 8,4 16 9 26 14 ESE 1016,0 20 60 0,0
05.12.2019 15:00:00 17,9 7,3 11 6 23 13 E 1015,9 20 60 0,0
05.12.2019 14:00:00 17,9 7,6 14 8 24 13 ESE 1015,8 20 60 0,0
05.12.2019 13:00:00 17,5 6,4 13 7 22 12 E 1016,5 20 57 -
05.12.2019 12:00:00 17,2 5,5 8 5 16 9 E 1016,6 20 47 0,0
05.12.2019 11:00:00 16,0 5,9 3 1 6 4 SW 1016,5 20 43 0,0
05.12.2019 10:00:00 12,9 7,1 2 1 5 3 NNE 1015,7 20 18 0,0

tt = temperature
td = dewpoint
ff = wind speed
fx = gusts
dd = wind direction
ppp = reduced air pressure
vv = visibility
sd = sunshine duration
rr = precipitation

Next stations